Location: Camp Crooked Creek
(37.9149°N, 85.6607°W)
Time: 03:58:56
(UTC-04:00)

Amateur Radio Satellites - All Passes

Search period start: 26 April 2017 03:28
Search period end: 27 April 2017 03:28
Location: Camp Crooked Creek, 37.9149°N, 85.6607°W

Satellite Date Start Highest point End Downlink Frequencies (MHz)
Time Altitude Azimuth
BEESAT 26 Apr 03:33:38 03:38:15 55° 73° (ENE) 03:42:54 436.000
MOZHAYETS 4 26 Apr 03:35:44 03:39:26 25° 69° (ENE) 03:43:09
BUGSAT 1 26 Apr 03:37:54 03:39:57 14° 294° (WNW) 03:42:01 437.445
ITUPSAT 1 26 Apr 04:13:38 04:18:18 57° 259° (W) 04:23:01 437.325
ITAMSAT 1 26 Apr 04:13:50 04:17:57 24° 95° (E) 04:22:04 435.822/435.867
Gurwin Techsat 1B 26 Apr 04:23:29 04:28:25 40° 290° (WNW) 04:33:20 435.225
CUBESAT XI-V 26 Apr 04:25:41 04:28:16 15° 64° (ENE) 04:30:52 437.345
Oscar 19 26 Apr 04:29:29 04:33:17 21° 295° (WNW) 04:37:04 437.125/150
NO-84 26 Apr 04:49:01 04:51:41 37° 230° (SW) 04:54:21 435.350 FM
YUBILEINY 26 Apr 04:57:44 05:05:51 46° 88° (E) 05:13:58 435.215
PCSat 26 Apr 05:00:21 05:04:18 20° 311° (NW) 05:08:17 145.827
AO-7 26 Apr 05:03:46 05:11:56 58° 103° (ESE) 05:20:05 .
MOZHAYETS 4 26 Apr 05:12:34 05:16:27 28° 264° (W) 05:20:23
BEESAT 26 Apr 05:13:55 05:16:20 14° 268° (W) 05:18:45 436.000
KKS-1 26 Apr 05:29:37 05:34:05 79° 76° (ENE) 05:38:35 437.445
ITAMSAT 1 26 Apr 05:52:44 05:57:28 37° 291° (WNW) 06:02:12 435.822/435.867
CUBESAT XI-V 26 Apr 06:00:39 06:05:09 53° 260° (W) 06:09:44 437.345
STARS 26 Apr 06:03:34 06:07:58 80° 77° (ENE) 06:12:24 437.465
SO-50 26 Apr 06:11:52 06:12:12 10° 107° (ESE) 06:12:32 436.795
XW-2D 26 Apr 06:52:11 06:54:07 13° 93° (E) 06:56:04 145.860 - 145.880
YUBILEINY 26 Apr 06:54:56 07:02:43 36° 287° (WNW) 07:10:34 435.215
CUTE-I 26 Apr 06:56:09 06:59:31 17° 92° (E) 07:02:53 437.470
AO-7 26 Apr 06:57:14 07:04:14 32° 301° (WNW) 07:11:14 .
XW-2B 26 Apr 06:58:42 07:01:05 16° 94° (E) 07:03:28 145.730 - 145.750
LilacSat-2 26 Apr 07:08:16 07:11:20 22° 95° (E) 07:14:23 437.200
KAITUO 1B 26 Apr 07:09:51 07:12:24 17° 94° (E) 07:14:56 145.475/437.950
XW-2C 26 Apr 07:10:02 07:13:04 22° 95° (E) 07:16:05 145.795 - 145.815
RS-15 26 Apr 07:15:07 07:25:23 35° 104° (ESE) 07:35:54 29.354- 29.394
M-CUBED/EXP-1 PRIME 26 Apr 07:21:36 07:25:33 29° 64° (ENE) 07:29:32 437.505
DOVE 4 26 Apr 07:32:06 07:36:43 72° 101° (E) 07:41:02 437.250
XW-2F 26 Apr 07:35:33 07:39:13 45° 99° (E) 07:42:52 145.980 - 146.000
SO-50 26 Apr 07:47:24 07:52:01 77° 302° (WNW) 07:56:36 436.795
NUDT-PHONESAT 26 Apr 07:49:06 07:52:45 55° 99° (E) 07:56:26 437.300
STRAND 1 26 Apr 07:56:08 08:01:03 50° 72° (ENE) 08:05:59 437.568
XW-2A 26 Apr 08:11:05 08:12:26 12° 93° (E) 08:13:47 145.665 - 145.685
XW-2D 26 Apr 08:24:56 08:28:25 35° 287° (WNW) 08:31:55 145.860 - 145.880
Tancredo 1 26 Apr 08:28:01 08:30:25 20° 132° (SE) 08:32:48 437.200
XW-2B 26 Apr 08:31:57 08:35:19 30° 288° (WNW) 08:38:41 145.730 - 145.750
CUTE-I 26 Apr 08:34:42 08:39:52 54° 288° (WNW) 08:45:01 437.470
CUBEBUG 2 26 Apr 08:36:29 08:38:20 13° 92° (E) 08:40:11 437.445
LilacSat-2 26 Apr 08:42:30 08:45:30 22° 290° (WNW) 08:48:30 437.200
KAITUO 1B 26 Apr 08:43:11 08:46:25 27° 288° (WNW) 08:49:38 145.475/437.950
HO-68 26 Apr 08:43:14 08:50:02 43° 99° (E) 08:56:48 435.675
XW-2C 26 Apr 08:44:10 08:47:08 22° 290° (WNW) 08:50:06 145.795 - 145.815
ISS 26 Apr 08:44:12 08:46:53 24° 132° (SE) 08:49:35 437.550
M-CUBED/EXP-1 PRIME 26 Apr 08:55:53 08:59:50 29° 260° (W) 09:03:53 437.505
AAUSAT CUBESAT 2 26 Apr 09:07:55 09:11:04 20° 94° (E) 09:14:12 437.432
CUTE 1.7 + AOD 2 26 Apr 09:11:35 09:15:54 81° 102° (ESE) 09:20:11 437.475
XW-2F 26 Apr 09:11:39 09:12:55 11° 294° (WNW) 09:14:11 145.980 - 146.000
DOVE 4 26 Apr 09:12:49 09:13:39 10° 299° (WNW) 09:14:29 437.250
ZACube-1 26 Apr 09:21:09 09:23:27 14° 93° (E) 09:25:45 437.345
RS-15 26 Apr 09:25:04 09:37:02 67° 305° (NW) 09:49:24 29.354- 29.394
AO-73 26 Apr 09:28:09 09:30:42 15° 93° (E) 09:33:16 145.935
SO-50 26 Apr 09:32:05 09:33:14 11° 320° (NW) 09:34:22 436.795
SEEDS 26 Apr 09:32:46 09:37:03 90° 271° (W) 09:41:18 437.485
STRAND 1 26 Apr 09:37:12 09:40:28 17° 267° (W) 09:43:45 437.568
XW-2A 26 Apr 09:42:18 09:45:16 29° 287° (WNW) 09:48:13 145.665 - 145.685
Oscar 11 26 Apr 09:44:02 09:47:15 20° 94° (E) 09:50:26 .
UWE-3 26 Apr 09:59:00 10:03:12 73° 103° (ESE) 10:07:27 435.000/436.395/437.385
Tancredo 1 26 Apr 10:03:20 10:06:10 33° 327° (NNW) 10:09:02 437.200
PRISM 26 Apr 10:05:00 10:08:42 32° 71° (ENE) 10:12:27 437.425
TIGRISAT 26 Apr 10:07:30 10:10:40 20° 68° (ENE) 10:13:47 435.000
CUBEBUG 2 26 Apr 10:11:11 10:15:10 45° 286° (WNW) 10:19:12 437.445
ISS 26 Apr 10:20:18 10:23:15 31° 328° (NNW) 10:26:13 437.550
UNISAT 6 26 Apr 10:27:35 10:31:36 35° 72° (ENE) 10:35:33 437.425
HO-68 26 Apr 10:31:13 10:37:33 35° 296° (WNW) 10:43:52 435.675
O/OREOS (USA 219) 26 Apr 10:38:46 10:42:27 24° 102° (ESE) 10:46:09 437.305
AAUSAT CUBESAT 2 26 Apr 10:42:53 10:46:30 29° 289° (WNW) 10:50:08 437.432
OBJECT BX 26 Apr 10:46:30 10:49:09 19° 95° (E) 10:51:47 145.990 - 145.960
ZACube-1 26 Apr 10:55:54 10:59:52 42° 287° (WNW) 11:03:56 437.345
AO-73 26 Apr 11:03:08 11:07:03 39° 287° (WNW) 11:11:03 145.935
FO-29 26 Apr 11:05:21 11:11:48 73° 75° (ENE) 11:17:32 435.910
AIST 2D 26 Apr 11:15:27 11:16:29 11° 67° (ENE) 11:17:30 435.315
Oscar 11 26 Apr 11:19:32 11:23:24 32° 289° (WNW) 11:27:15 .
DELFI C3 26 Apr 11:31:03 11:35:04 80° 283° (WNW) 11:39:02 145.870
PRISM 26 Apr 11:41:10 11:44:02 18° 266° (W) 11:46:55 437.425
RS-15 26 Apr 11:43:07 11:52:33 25° 333° (NNW) 12:02:05 29.354- 29.394
TIGRISAT 26 Apr 11:43:09 11:47:08 33° 263° (W) 11:51:03 435.000
EO-79 26 Apr 11:43:46 11:46:32 17° 67° (ENE) 11:49:17 145.935-145.965
DUCHIFAT 1 26 Apr 11:46:46 11:49:09 15° 66° (ENE) 11:51:33 145.980
LO-87 26 Apr 11:52:26 11:54:31 15° 93° (E) 11:56:37 145.935 - 145.965
PCSat 26 Apr 12:05:00 12:09:54 33° 54° (NE) 12:14:46 145.827
UNISAT 6 26 Apr 12:05:22 12:08:23 18° 266° (W) 12:11:22 437.425
O/OREOS (USA 219) 26 Apr 12:17:40 12:21:41 29° 298° (WNW) 12:25:44 437.305
OBJECT BX 26 Apr 12:19:49 12:22:46 23° 289° (WNW) 12:25:43 145.990 - 145.960
POLYITAN 1 26 Apr 12:21:24 12:25:26 45° 73° (ENE) 12:29:28 437.675
QB50P2 26 Apr 12:27:50 12:32:00 60° 75° (ENE) 12:36:10 145.880/145.840
ESTCUBE 1 26 Apr 12:38:23 12:42:30 33° 97° (E) 12:46:34 437.505/2401.250
AIST 2D 26 Apr 12:46:05 12:49:18 37° 262° (W) 12:52:34 435.315
BUGSAT 1 26 Apr 12:49:19 12:52:39 24° 69° (ENE) 12:55:58 437.445
NANOSAT C BR1 26 Apr 12:50:09 12:54:22 88° 268° (W) 12:58:35 145.865
FO-29 26 Apr 12:53:49 12:57:10 15° 267° (W) 13:00:22 435.910
VELOX 1 26 Apr 12:55:15 12:57:09 13° 92° (E) 12:59:03 145.980
EO-79 26 Apr 13:18:05 13:21:59 36° 262° (W) 13:25:54 145.935-145.965
DUCHIFAT 1 26 Apr 13:20:28 13:24:27 42° 261° (W) 13:28:27 145.980
LO-87 26 Apr 13:24:57 13:28:00 27° 288° (WNW) 13:31:02 145.935 - 145.965
AO-85 26 Apr 13:27:37 13:31:55 59° 118° (ESE) 13:35:57 145.980
DX 1 26 Apr 13:47:29 13:50:28 18° 94° (E) 13:53:25 434.975-435.025
PCSat 26 Apr 13:48:26 13:53:13 32° 251° (WSW) 13:57:57 145.827
SPROUT 26 Apr 13:58:51 14:03:05 67° 101° (E) 14:07:17 437.525
POLYITAN 1 26 Apr 13:59:27 14:01:26 13° 268° (W) 14:03:25 437.675
50 SAT 26 Apr 14:01:16 14:04:34 39° 99° (E) 14:07:50 437.505
Gurwin Techsat 1B 26 Apr 14:03:25 14:08:04 32° 68° (ENE) 14:12:44 435.225
RS-15 26 Apr 14:03:37 14:11:35 19° 10° (N) 14:19:26 29.354- 29.394
Oscar 19 26 Apr 14:04:18 14:09:19 55° 73° (ENE) 14:14:23 437.125/150
BEESAT 3 26 Apr 14:13:32 14:16:57 29° 114° (ESE) 14:20:25 437.485
AO-7 26 Apr 14:13:44 14:17:31 14° 49° (NE) 14:21:17 .
BEESAT 2 26 Apr 14:15:04 14:15:19 10° 107° (ESE) 14:15:33 435.950
ESTCUBE 1 26 Apr 14:15:36 14:19:04 22° 292° (WNW) 14:22:32 437.505/2401.250
BUGSAT 1 26 Apr 14:24:28 14:27:53 24° 264° (W) 14:31:18 437.445
VELOX 1 26 Apr 14:29:35 14:33:53 52° 287° (WNW) 14:38:09 145.980
UKube-1 26 Apr 14:50:09 14:54:28 65° 102° (ESE) 14:58:44 .
Tancredo 1 26 Apr 14:54:49 14:57:01 18° 26° (NNE) 14:59:14 437.200
AO-85 26 Apr 15:10:22 15:12:35 14° 313° (NW) 15:14:46 145.980
YUBILEINY 26 Apr 15:10:48 15:16:54 20° 66° (ENE) 15:22:58 435.215
ISS 26 Apr 15:13:18 15:15:51 21° 27° (NNE) 15:18:23 437.550
DX 1 26 Apr 15:22:44 15:26:44 36° 289° (WNW) 15:30:40 434.975-435.025
ITAMSAT 1 26 Apr 15:29:58 15:34:30 32° 68° (ENE) 15:39:03 435.822/435.867
50 SAT 26 Apr 15:36:17 15:37:06 11° 294° (WNW) 15:37:55 437.505
BEESAT 26 Apr 15:36:41 15:39:34 16° 93° (E) 15:42:24 436.000
SPROUT 26 Apr 15:38:03 15:38:24 10° 297° (WNW) 15:38:43 437.525
Gurwin Techsat 1B 26 Apr 15:43:21 15:47:57 29° 264° (W) 15:52:34 435.225
Oscar 19 26 Apr 15:45:52 15:48:57 16° 268° (W) 15:52:02 437.125/150
BEESAT 2 26 Apr 15:48:36 15:52:30 59° 303° (WNW) 15:56:28 435.950
BEESAT 3 26 Apr 15:51:24 15:54:32 22° 310° (NW) 15:57:43 437.485
AO-7 26 Apr 16:00:33 16:08:44 67° 68° (ENE) 16:16:55 .
ITUPSAT 1 26 Apr 16:15:47 16:20:18 40° 99° (E) 16:24:47 437.325
RS-15 26 Apr 16:17:34 16:28:58 41° 43° (NE) 16:39:51 29.354- 29.394
SO-50 26 Apr 16:20:20 16:24:46 56° 56° (NE) 16:29:12 436.795
UKube-1 26 Apr 16:28:48 16:29:54 11° 297° (WNW) 16:30:59 .
Tancredo 1 26 Apr 16:30:06 16:33:08 55° 223° (SW) 16:36:10 437.200
ISS 26 Apr 16:49:20 16:52:28 46° 224° (SW) 16:55:36 437.550
YUBILEINY 26 Apr 17:05:53 17:14:40 80° 265° (W) 17:23:27 435.215
MOZHAYETS 4 26 Apr 17:08:16 17:12:54 75° 102° (ESE) 17:17:30
ITAMSAT 1 26 Apr 17:09:28 17:13:54 29° 263° (W) 17:18:23 435.822/435.867
BEESAT 26 Apr 17:12:58 17:17:34 48° 288° (WNW) 17:22:08 436.000
KKS-1 26 Apr 17:23:26 17:26:18 17° 94° (E) 17:29:08 437.445
ITUPSAT 1 26 Apr 17:54:22 17:57:49 20° 294° (WNW) 18:01:15 437.325
AO-7 26 Apr 17:55:35 18:01:59 25° 265° (W) 18:08:27 .
STARS 26 Apr 17:55:52 17:58:33 16° 93° (E) 18:01:13 437.465
CUBESAT XI-V 26 Apr 17:58:46 18:03:16 42° 98° (E) 18:07:43 437.345
SO-50 26 Apr 18:02:28 18:04:44 14° 252° (WSW) 18:07:00 436.795
XW-2F 26 Apr 18:15:41 18:18:09 17° 69° (ENE) 18:20:36 145.980 - 146.000
CUTE-I 26 Apr 18:15:58 18:20:14 25° 66° (ENE) 18:24:30 437.470
JUGNU 26 Apr 18:20:51 18:21:28 10° 170° (S) 18:22:05 437.505
NUDT-PHONESAT 26 Apr 18:27:28 18:30:06 19° 69° (ENE) 18:32:43 437.300
RS-15 26 Apr 18:30:13 18:42:09 65° 247° (WSW) 18:53:30 29.354- 29.394
DOVE 4 26 Apr 18:34:19 18:39:32 61° 74° (ENE) 18:44:42 437.250
MOZHAYETS 4 26 Apr 18:48:25 18:49:23 11° 297° (WNW) 18:50:21
KKS-1 26 Apr 18:58:51 19:02:59 39° 288° (WNW) 19:07:06 437.445
XW-2D 26 Apr 19:03:47 19:07:31 79° 76° (ENE) 19:11:16 145.860 - 145.880
YUBILEINY 26 Apr 19:06:14 19:09:57 13° 284° (WNW) 19:13:41 435.215
XW-2B 26 Apr 19:10:43 19:14:27 87° 257° (WSW) 19:18:12 145.730 - 145.750
HO-68 26 Apr 19:10:46 19:16:33 28° 62° (ENE) 19:22:21 435.675
KAITUO 1B 26 Apr 19:20:39 19:24:19 81° 259° (WSW) 19:28:01 145.475/437.950
LilacSat-2 26 Apr 19:21:37 19:25:19 57° 260° (W) 19:29:02 437.200
XW-2C 26 Apr 19:22:42 19:26:23 58° 260° (W) 19:30:05 145.795 - 145.815
STARS 26 Apr 19:30:57 19:35:03 40° 288° (WNW) 19:39:06 437.465
CUBESAT XI-V 26 Apr 19:37:03 19:40:17 19° 294° (WNW) 19:43:29 437.345
XW-2F 26 Apr 19:48:52 19:52:03 27° 263° (W) 19:55:16 145.980 - 146.000
CUTE-I 26 Apr 19:55:04 20:00:02 39° 262° (W) 20:05:02 437.470
AAUSAT CUBESAT 2 26 Apr 19:58:07 19:59:26 11° 65° (ENE) 20:00:45 437.432
NUDT-PHONESAT 26 Apr 20:00:52 20:03:50 23° 264° (W) 20:06:50 437.300
CUTE 1.7 + AOD 2 26 Apr 20:02:16 20:06:14 43° 73° (ENE) 20:10:15 437.475
NO-84 26 Apr 20:04:13 20:07:54 46° 131° (SE) 20:11:15 435.350 FM
JUGNU 26 Apr 20:07:00 20:09:35 13° 180° (S) 20:12:09 437.505
STRAND 1 26 Apr 20:09:12 20:12:51 20° 94° (E) 20:16:30 437.568
XW-2A 26 Apr 20:11:17 20:14:34 57° 76° (ENE) 20:17:52 145.665 - 145.685
DOVE 4 26 Apr 20:14:27 20:17:30 15° 269° (W) 20:20:34 437.250
SEEDS 26 Apr 20:22:22 20:26:22 47° 74° (ENE) 20:30:25 437.485
M-CUBED/EXP-1 PRIME 26 Apr 20:36:49 20:40:03 22° 99° (E) 20:43:06 437.505
Oscar 11 26 Apr 20:38:23 20:40:21 13° 65° (ENE) 20:42:19 .
RS-15 26 Apr 20:48:56 20:51:57 11° 267° (W) 20:54:56 29.354- 29.394
O/OREOS (USA 219) 26 Apr 20:49:46 20:53:59 35° 63° (ENE) 20:58:09 437.305
UWE-3 26 Apr 20:54:06 20:58:10 45° 74° (ENE) 21:02:12 435.000/436.395/437.385
HO-68 26 Apr 20:56:52 21:03:49 55° 259° (WSW) 21:10:51 435.675
CUBEBUG 2 26 Apr 21:06:55 21:11:18 73° 258° (WSW) 21:15:35 437.445
SRMSAT 26 Apr 21:30:05 21:32:10 12° 173° (S) 21:34:16 437.500
AAUSAT CUBESAT 2 26 Apr 21:30:18 21:34:22 56° 260° (W) 21:38:28 437.432
CUTE 1.7 + AOD 2 26 Apr 21:40:05 21:42:16 14° 268° (W) 21:44:28 437.475
NO-84 26 Apr 21:42:53 21:45:33 19° 325° (NW) 21:48:05 435.350 FM
STRAND 1 26 Apr 21:47:22 21:52:12 44° 289° (WNW) 21:57:01 437.568
ZACube-1 26 Apr 21:49:26 21:53:38 71° 258° (WSW) 21:57:48 437.345
AO-73 26 Apr 21:56:20 22:00:30 65° 259° (WSW) 22:04:38 145.935
AO-85 26 Apr 22:00:25 22:03:54 28° 53° (NE) 22:07:29 145.980
SEEDS 26 Apr 22:00:29 22:02:18 12° 269° (W) 22:04:07 437.485
M-CUBED/EXP-1 PRIME 26 Apr 22:11:00 22:14:27 26° 296° (WNW) 22:17:40 437.505
Oscar 11 26 Apr 22:11:50 22:16:00 52° 260° (W) 22:20:13 .
DELFI C3 26 Apr 22:14:25 22:18:11 42° 73° (ENE) 22:21:58 145.870
O/OREOS (USA 219) 26 Apr 22:29:48 22:33:07 20° 259° (W) 22:36:23 437.305
UWE-3 26 Apr 22:32:47 22:34:50 13° 268° (W) 22:36:52 435.000/436.395/437.385
BEESAT 3 26 Apr 22:32:49 22:34:40 13° 45° (NE) 22:36:31 437.485
OBJECT BX 26 Apr 22:54:54 22:58:30 75° 257° (WSW) 23:02:09 145.990 - 145.960
SRMSAT 26 Apr 23:17:55 23:20:27 13° 184° (S) 23:23:00 437.500
PRISM 26 Apr 23:22:36 23:26:45 68° 102° (ESE) 23:30:50 437.425
TIGRISAT 26 Apr 23:35:35 23:39:47 53° 100° (E) 23:44:01 435.000
ESTCUBE 1 26 Apr 23:36:24 23:40:03 25° 69° (ENE) 23:43:43 437.505/2401.250
AO-85 26 Apr 23:40:56 23:44:08 23° 247° (WSW) 23:47:27 145.980
DELFI C3 26 Apr 23:51:25 23:53:09 12° 268° (W) 23:54:54 145.870
UNISAT 6 26 Apr 23:56:47 00:01:05 79° 284° (WNW) 00:05:26 437.425
LO-87 26 Apr 23:58:21 00:01:59 83° 76° (ENE) 00:05:38 145.935 - 145.965
FO-29 27 Apr 00:00:43 00:05:57 72° 103° (ESE) 00:11:33 435.910
BEESAT 2 27 Apr 00:07:48 00:11:42 43° 55° (NE) 00:15:33 435.950
BEESAT 3 27 Apr 00:08:41 00:12:40 65° 242° (WSW) 00:16:36 437.485
AIST 2D 27 Apr 00:13:28 00:15:45 16° 94° (E) 00:18:03 435.315
QB50P2 27 Apr 00:16:53 00:17:57 11° 91° (E) 00:19:01 145.880/145.840
50 SAT 27 Apr 00:34:02 00:35:27 12° 67° (ENE) 00:36:53 437.505
NANOSAT C BR1 27 Apr 00:37:16 00:39:54 16° 93° (E) 00:42:32 145.865
DX 1 27 Apr 00:42:14 00:44:24 14° 64° (ENE) 00:46:34 434.975-435.025
SPROUT 27 Apr 00:50:16 00:54:14 39° 72° (ENE) 00:58:13 437.525
EO-79 27 Apr 01:04:08 01:08:02 37° 98° (E) 01:11:55 145.935-145.965
DUCHIFAT 1 27 Apr 01:06:04 01:09:48 31° 97° (E) 01:13:32 145.980
ESTCUBE 1 27 Apr 01:12:51 01:16:43 28° 264° (W) 01:20:36 437.505/2401.250
TIGRISAT 27 Apr 01:14:09 01:16:01 13° 295° (WNW) 01:17:52 435.000
VELOX 1 27 Apr 01:24:26 01:28:52 76° 257° (WSW) 01:33:22 145.980
UKube-1 27 Apr 01:42:39 01:46:44 42° 72° (ENE) 01:50:50 .
POLYITAN 1 27 Apr 01:43:14 01:47:26 72° 283° (WNW) 01:51:36 437.675
AIST 2D 27 Apr 01:46:02 01:48:57 24° 288° (WNW) 01:51:51 435.315
BEESAT 2 27 Apr 01:46:48 01:49:04 15° 251° (WSW) 01:51:20 435.950
FO-29 27 Apr 01:48:14 01:50:31 13° 298° (WNW) 01:52:51 435.910
QB50P2 27 Apr 01:49:56 01:54:03 54° 286° (WNW) 01:58:08 145.880/145.840
50 SAT 27 Apr 02:04:50 02:08:02 34° 262° (W) 02:11:15 437.505
BUGSAT 1 27 Apr 02:07:00 02:10:54 49° 100° (E) 02:14:46 437.445
NANOSAT C BR1 27 Apr 02:11:53 02:15:43 36° 288° (WNW) 02:19:33 145.865
DX 1 27 Apr 02:15:50 02:20:06 52° 260° (W) 02:24:25 434.975-435.025
Oscar 19 27 Apr 02:18:17 02:22:20 22° 94° (E) 02:26:20 437.125/150
Gurwin Techsat 1B 27 Apr 02:22:41 02:25:21 14° 91° (E) 02:28:01 435.225
SPROUT 27 Apr 02:27:40 02:30:16 16° 267° (W) 02:32:53 437.525
EO-79 27 Apr 02:40:48 02:43:29 17° 293° (WNW) 02:46:09 145.935-145.965
NO-84 27 Apr 02:41:00 02:42:23 13° 30° (NNE) 02:43:44 435.350 FM
BEESAT 27 Apr 02:41:47 02:44:39 16° 64° (ENE) 02:47:30 436.000
DUCHIFAT 1 27 Apr 02:42:17 02:45:14 19° 292° (WNW) 02:48:12 145.980
PCSat 27 Apr 02:44:40 02:49:43 42° 111° (ESE) 02:54:48 145.827
UKube-1 27 Apr 03:20:26 03:22:56 15° 267° (W) 03:25:25 .
